Station FOXR1 - 8454000 - Providence, RI Image indicating link to RSS feed of recent meteorological observations for station FOXR1


Conditions at FOXR1 as of
(4:30 pm EDT)
2030 GMT on 04/19/2024:
     

Click on the graph icon in the table below to see a time series plot of the last five days of that observation.

5-day plot - Wind Direction Wind Direction (WDIR):SSE ( 150 deg true )
5-day plot - Wind Speed Wind Speed (WSPD): 15.9 kts
5-day plot - Wind Gust Wind Gust (GST): 18.1 kts
5-day plot - Atmospheric Pressure Atmospheric Pressure (PRES):30.10 in
5-day plot - Air Temperature Air Temperature (ATMP): 52.7 °F
5-day plot - Water Temperature Water Temperature (WTMP): 46.9 °F
5-day plot - Wind Chill Wind Chill (CHILL): 47.5 °F
5-day plot - Wind Speed at 10 Meters Wind Speed at 10 meters (WSPD10M): 15.5 kts
5-day plot - Wind Speed at 20 Meters Wind Speed at 20 meters (WSPD20M): 15.5 kts
5-day plot -  Wind Speed, Wind Gust and Atmospheric Pressure Combined plot of Wind Speed, Gust, and Air Pressure
NOS Water Level Observation Network Water Level
Previous observations
TIME
(EDT)
5-day plot - Wind Direction
WDIR
 
5-day plot - Wind Speed
WSPD
kts
5-day plot - Wind Gust
GST
kts
5-day plot - Wave Height
WVHT
ft
5-day plot - Dominant Wave Period
DPD
sec
5-day plot - Average Wave Period
APD
sec
5-day plot - Mean Wave Direction
MWD
 
5-day plot - Atmospheric Pressure
PRES
in
5-day plot - Pressure Tendency
PTDY
in
5-day plot - Air Temperature
ATMP
°F
5-day plot - Water Temperature
WTMP
°F
5-day plot - Dew Point
DEWP
°F
5-day plot - Salinity
SAL
psu
5-day plot - Visibility
VIS
nmi
5-day plot - Tide (above MLLW)
TIDE
ft
2024-04-19 04:24 pmSSE 14.0 17.1----30.11- 53.1 46.9----
2024-04-19 04:18 pmSSE 12.0 17.1----30.11- 53.6 46.8----
2024-04-19 04:12 pm S 13.0 15.9----30.11- 53.8 46.9----
2024-04-19 04:06 pm S 11.1 14.0----30.12- 53.6 47.1----
2024-04-19 04:00 pmSSE 13.0 15.9----30.11-0.03 53.2 47.1----
2024-04-19 03:54 pmSSE 9.9 15.9----30.11- 53.8 47.1----
2024-04-19 03:48 pmSSE 14.0 15.9----30.12- 53.4 47.1----
2024-04-19 03:42 pmSSE 13.0 17.1----30.12- 53.2 47.1----
2024-04-19 03:36 pmSSE 14.0 15.9----30.12- 53.8 47.1----
2024-04-19 03:30 pmSSE 13.0 15.9----30.12- 53.8 47.1----
2024-04-19 03:24 pmSSE 13.0 17.1----30.12- 54.5 47.1----
2024-04-19 03:18 pmSSE 14.0 15.9----30.12- 53.8 47.1----
2024-04-19 03:12 pmSSE 14.0 17.1----30.13- 53.8 47.1----
2024-04-19 03:06 pmSSE 11.1 15.9----30.13- 54.7 46.9----
2024-04-19 03:00 pmSSE 15.9 19.0----30.13-0.04 53.6 46.9----
2024-04-19 02:54 pmSSE 12.0 18.1----30.13- 54.5 46.8----
2024-04-19 02:48 pmSSE 13.0 17.1----30.13- 54.0 46.8----
2024-04-19 02:42 pmSSE 15.0 17.1----30.14- 53.2 46.6----
2024-04-19 02:36 pmSSE 13.0 17.1----30.14- 54.0 46.6----
2024-04-19 02:30 pmSSE 15.9 17.1----30.13- 53.6 46.6----
2024-04-19 02:24 pmSSE 12.0 17.1----30.13- 55.2 46.4----
2024-04-19 02:18 pmSSE 13.0 17.1----30.13- 53.8 46.4----
2024-04-19 02:12 pmSSE 15.0 17.1----30.13- 53.6 46.4----
2024-04-19 02:06 pmSSE 14.0 15.0----30.13- 54.1 46.4----
2024-04-19 02:00 pmSSE 12.0 18.1----30.13-0.05 54.1 46.4----
2024-04-19 01:54 pmSSE 14.0 15.9----30.13- 54.0 46.4----
2024-04-19 01:48 pmSSE 14.0 17.1----30.13- 54.3 46.4----
2024-04-19 01:42 pmSSE 14.0 18.1----30.13- 54.3 46.4----
2024-04-19 01:36 pm SE 12.0 15.9----30.14- 54.7 46.4----
2024-04-19 01:30 pmSSE 12.0 15.9----30.14- 55.4 46.4----
2024-04-19 01:24 pmSSE 11.1 14.0----30.15- 55.4 46.4----
2024-04-19 01:18 pmSSE 12.0 15.0----30.16- 55.8 46.4----
2024-04-19 01:12 pmSSE 11.1 15.9----30.15- 55.8 46.4----
2024-04-19 01:06 pm S 8.9 17.1----30.15- 56.5 46.6----
2024-04-19 01:00 pmSSE 11.1 14.0----30.15-0.05 54.5 46.6----
2024-04-19 12:54 pmSSE 11.1 15.9----30.15- 55.2 46.6----
2024-04-19 12:48 pmSSE 11.1 17.1----30.15- 54.7 46.8----
2024-04-19 12:42 pm S 9.9 14.0----30.15- 55.4 46.8----
2024-04-19 12:36 pmSSE 11.1 13.0----30.16- 54.9 46.8----
2024-04-19 12:30 pmSSE 9.9 15.0----30.16- 54.7 46.9----
2024-04-19 12:24 pmSSE 12.0 15.0----30.16- 54.0 46.9----
2024-04-19 12:18 pm S 9.9 15.0----30.17- 54.9 46.9----
2024-04-19 12:12 pmSSE 11.1 15.9----30.17- 54.0 46.9----
2024-04-19 12:06 pmSSE 12.0 15.0----30.17- 54.3 47.1----
2024-04-19 12:00 pmSSE 8.9 13.0----30.17-0.03 54.5 47.1----
2024-04-19 11:54 am S 8.9 12.0----30.17- 55.0 47.1----
2024-04-19 11:48 am S 9.9 12.0----30.18- 54.3 47.1----
2024-04-19 11:42 amSSE 7.0 12.0----30.17- 53.8 47.1----
2024-04-19 11:36 amSSE 8.0 13.0----30.18- 52.7 47.1----
2024-04-19 11:30 amSSE 9.9 12.0----30.18- 53.1 47.1----
2024-04-19 11:24 am S 7.0 11.1----30.18- 53.6 47.1----
2024-04-19 11:18 am SE 11.1 15.0----30.18- 52.2 47.1----
2024-04-19 11:12 am SE 8.0 14.0----30.18- 52.2 47.1----
2024-04-19 11:06 am S 11.1 13.0----30.18- 53.1 46.9----
2024-04-19 11:00 amSSE 8.9 14.0----30.18-0.04 52.9 46.9----
2024-04-19 10:54 am SE 9.9 14.0----30.18- 52.2 46.9----
2024-04-19 10:48 amSSE 8.9 12.0----30.18- 52.0 46.9----
2024-04-19 10:42 amSSE 9.9 12.0----30.18- 51.1 46.9----
2024-04-19 10:36 am SE 9.9 13.0----30.18- 51.1 46.9----
2024-04-19 10:30 am SE 12.0 14.0----30.19- 50.9 46.9----
2024-04-19 10:24 am SE 7.0 9.9----30.19- 50.5 46.9----
2024-04-19 10:18 am SE 8.0 11.1----30.19- 50.4 46.9----
2024-04-19 10:12 am SE 6.0 8.9----30.19- 50.2 46.9----
2024-04-19 10:06 am SE 6.0 8.0----30.19- 50.0 46.9----
2024-04-19 10:00 amSSE 4.1 6.0----30.19-0.02 49.6 46.9----
2024-04-19 09:54 am SE 4.1 6.0----30.19- 49.5 46.9----
2024-04-19 09:48 am SE 5.1 8.0----30.19- 48.9 46.8----
2024-04-19 09:42 am SE 6.0 7.0----30.19- 48.9 46.8----
2024-04-19 09:36 am SE 6.0 8.9----30.19- 48.2 46.8----
2024-04-19 09:30 amESE 6.0 8.9----30.19- 47.8 46.8----
2024-04-19 09:24 amESE 6.0 8.0----30.19- 47.5 46.8----
2024-04-19 09:18 amESE 5.1 6.0----30.19- 46.9 46.8----
2024-04-19 09:12 amESE 4.1 7.0----30.20- 46.6 46.8----
2024-04-19 09:06 am E 5.1 7.0----30.20- 46.6 46.6----
2024-04-19 09:00 amESE 5.1 6.0----30.20+0.02 46.2 46.6----
2024-04-19 08:54 amENE 2.9 5.1----30.20- 46.0 46.6----
2024-04-19 08:48 am E 1.9 2.9----30.21- 45.9 46.6----
2024-04-19 08:42 am- 0.0 5.1----30.21- 45.7 46.6----
2024-04-19 08:36 amENE 2.9 5.1----30.21- 45.5 46.4----
2024-04-19 08:30 amENE 2.9 5.1----30.21- 45.3 46.4----
2024-04-19 08:24 am NE 1.9 4.1----30.21- 45.5 46.2----
2024-04-19 08:18 amENE 1.9 6.0----30.21- 45.5 46.2----
2024-04-19 08:12 am NE 4.1 6.0----30.22- 45.1 46.2----
2024-04-19 08:06 am NE 1.9 5.1----30.22- 45.5 46.2----
2024-04-19 08:00 amNNE 1.9 4.1----30.22+0.03 45.1 46.2----
2024-04-19 07:54 am NE 1.9 4.1----30.22- 45.0 46.2----
2024-04-19 07:48 am NE 2.9 6.0----30.22- 45.0 46.0----
2024-04-19 07:42 amNNE 4.1 5.1----30.22- 45.1 46.2----
2024-04-19 07:36 amNNE 1.9 6.0----30.22- 45.3 46.2----
2024-04-19 07:30 amNNE 2.9 5.1----30.22- 45.1 46.2----
2024-04-19 07:24 amNNE 2.9 5.1----30.22- 45.0 46.2----
2024-04-19 07:18 am N 2.9 5.1----30.22- 45.0 46.2----
2024-04-19 07:12 amENE 1.0 5.1----30.22- 45.0 46.2----
2024-04-19 07:06 am N 2.9 5.1----30.21- 45.0 46.2----
2024-04-19 07:00 amNNE 1.9 5.1----30.22+0.04 45.0 46.2----
2024-04-19 06:54 am N 2.9 6.0----30.21- 44.8 46.2----
2024-04-19 06:48 amNNE 2.9 7.0----30.21- 44.6 46.2----
2024-04-19 06:42 am N 5.1 7.0----30.21- 44.8 46.4----
2024-04-19 06:36 amNNE 5.1 7.0----30.20- 44.6 46.4----
2024-04-19 06:30 am N 5.1 7.0----30.20- 44.6 46.4----
2024-04-19 06:24 amNNE 1.9 5.1----30.20- 44.6 46.4----
2024-04-19 06:18 am NE 5.1 6.0----30.19- 44.2 46.6----
2024-04-19 06:12 am NE 5.1 7.0----30.19- 44.4 46.6----
2024-04-19 06:06 amNNE 6.0 7.0----30.19- 44.4 46.6----
2024-04-19 06:00 am NE 4.1 7.0----30.18+0.00 44.2 46.6----
2024-04-19 05:54 am NE 4.1 8.0----30.18- 44.2 46.6----
2024-04-19 05:48 amNNE 5.1 8.0----30.18- 44.2 46.6----
2024-04-19 05:42 amNNE 5.1 7.0----30.18- 44.4 46.8----
2024-04-19 05:36 amNNE 5.1 7.0----30.18- 44.2 46.8----
2024-04-19 05:30 amNNE 6.0 8.0----30.18- 44.2 46.8----
2024-04-19 05:24 amNNE 4.1 7.0----30.18- 44.4 46.8----
2024-04-19 05:18 am NE 5.1 6.0----30.18- 44.2 46.9----
2024-04-19 05:12 amNNE 4.1 6.0----30.18- 44.4 46.9----
2024-04-19 05:06 am NE 5.1 6.0----30.19- 44.2 46.9----
2024-04-19 05:00 amNNE 5.1 7.0----30.19+0.01 44.4 46.9----
2024-04-19 04:54 am NE 5.1 8.0----30.19- 44.4 46.9----
2024-04-19 04:48 am NE 6.0 7.0----30.19- 44.4 46.9----
2024-04-19 04:42 amNNE 5.1 8.0----30.19- 44.6 47.1----
2024-04-19 04:36 am N 5.1 8.9----30.19- 44.6 47.1----
2024-04-19 04:30 amNNE 6.0 8.0----30.19- 44.6 47.1----
2024-04-19 04:24 am N 5.1 8.0----30.19- 44.8 47.1----
2024-04-19 04:18 amNNE 7.0 8.0----30.19- 44.8 47.1----
2024-04-19 04:12 amNNE 7.0 8.9----30.18- 44.8 47.1----
2024-04-19 04:06 amNNE 6.0 8.9----30.18- 44.8 47.1----
2024-04-19 04:00 amNNE 6.0 7.0----30.18-0.01 44.6 47.1----
2024-04-19 03:54 amNNE 5.1 9.9----30.18- 44.4 47.1----
2024-04-19 03:48 amNNE 8.0 9.9----30.18- 44.6 47.1----
2024-04-19 03:42 amNNE 7.0 9.9----30.18- 44.6 47.1----
2024-04-19 03:36 amNNE 6.0 8.9----30.18- 44.6 47.1----
2024-04-19 03:30 am N 5.1 8.9----30.18- 44.8 47.1----
2024-04-19 03:24 amNNE 6.0 8.0----30.17- 44.6 47.1----
2024-04-19 03:18 amNNE 5.1 8.0----30.17- 44.6 47.3----
2024-04-19 03:12 am N 5.1 7.0----30.18- 45.0 47.3----
2024-04-19 03:06 am N 6.0 8.0----30.18- 44.8 47.5----
2024-04-19 03:00 am N 5.1 8.9----30.17-0.01 45.0 47.5----
2024-04-19 02:54 amNNE 8.0 8.9----30.17- 44.6 47.5----
2024-04-19 02:48 amNNE 5.1 8.0----30.17- 44.4 47.7----
2024-04-19 02:42 amNNE 5.1 7.0----30.16- 44.2 47.7----
2024-04-19 02:36 amNNE 4.1 6.0----30.17- 44.2 47.8----
2024-04-19 02:30 amNNE 4.1 5.1----30.16- 44.2 48.0----
2024-04-19 02:24 am NE 4.1 6.0----30.16- 44.4 48.2----
2024-04-19 02:18 am NE 2.9 5.1----30.17- 44.2 48.2----
2024-04-19 02:12 amNNE 4.1 5.1----30.17- 44.4 48.4----
2024-04-19 02:06 amNNE 4.1 6.0----30.17- 44.6 48.4----
2024-04-19 02:00 am NE 5.1 7.0----30.17-0.02 44.2 48.6----
2024-04-19 01:54 amNNE 5.1 7.0----30.18- 44.2 48.6----
2024-04-19 01:48 amNNE 5.1 7.0----30.18- 44.4 48.7----
2024-04-19 01:42 am NE 5.1 6.0----30.18- 44.2 48.9----
2024-04-19 01:36 am NE 5.1 7.0----30.19- 44.4 48.9----
2024-04-19 01:30 amNNE 5.1 8.9----30.19- 44.4 48.9----
2024-04-19 01:24 am NE 6.0 8.0----30.19- 44.4 48.9----
2024-04-19 01:18 amNNE 5.1 8.0----30.19- 44.8 48.9----
2024-04-19 01:12 amNNE 6.0 8.9----30.19- 44.8 48.9----
2024-04-19 01:06 amNNE 7.0 8.9----30.19- 44.8 49.1----
2024-04-19 01:00 amNNE 7.0 9.9----30.19+0.00 44.6 49.1----
2024-04-19 12:54 amNNE 7.0 11.1----30.19- 44.8 49.1----
2024-04-19 12:48 amNNE 8.0 8.9----30.20- 44.8 49.1----
2024-04-19 12:42 amNNE 8.0 11.1----30.20- 44.6 49.1----
2024-04-19 12:36 amNNE 8.9 9.9----30.19- 44.6 49.1----
2024-04-19 12:30 amNNE 8.0 9.9----30.19- 44.6 49.1----
2024-04-19 12:24 amNNE 8.9 11.1----30.19- 44.6 49.3----
2024-04-19 12:18 am NE 7.0 8.9----30.19- 44.4 49.3----
2024-04-19 12:12 amNNE 5.1 8.9----30.19- 44.4 49.3----
2024-04-19 12:06 amNNE 7.0 9.9----30.19- 44.4 49.3----
2024-04-19 12:00 am NE 8.0 8.9----30.19+0.01 44.2 49.3----
2024-04-18 11:54 pmNNE 8.0 8.9----30.19- 44.4 49.3----
2024-04-18 11:48 pm NE 8.0 9.9----30.19- 44.2 49.3----
2024-04-18 11:42 pmNNE 7.0 9.9----30.19- 44.2 49.3----
2024-04-18 11:36 pm N 6.0 8.9----30.20- 44.6 49.3----
2024-04-18 11:30 pmNNE 6.0 9.9----30.20- 44.2 49.3----
2024-04-18 11:24 pmNNE 8.9 9.9----30.19- 44.4 49.3----
2024-04-18 11:18 pmNNE 6.0 9.9----30.19- 44.4 49.3----
2024-04-18 11:12 pmNNE 7.0 8.9----30.20- 44.2 49.5----
2024-04-18 11:06 pmNNE 6.0 8.9----30.20- 44.2 49.5----
2024-04-18 11:00 pmNNE 7.0 11.1----30.20+0.04 44.4 49.5----
2024-04-18 10:54 pmNNE 7.0 11.1----30.20- 44.4 49.5----
2024-04-18 10:48 pmNNE 6.0 9.9----30.20- 44.4 49.5----
2024-04-18 10:42 pmNNE 7.0 8.0----30.20- 44.4 49.5----
2024-04-18 10:36 pm N 5.1 8.0----30.20- 44.6 49.5----
2024-04-18 10:30 pm N 6.0 9.9----30.20- 44.4 49.5----
2024-04-18 10:24 pm N 5.1 8.0----30.20- 44.6 49.5----
2024-04-18 10:18 pm N 5.1 8.9----30.20- 44.6 49.5----
2024-04-18 10:12 pm N 8.0 8.9----30.20- 44.6 49.5----
2024-04-18 10:06 pm N 5.1 11.1----30.20- 44.6 49.5----
2024-04-18 10:00 pm N 7.0 9.9----30.20+0.02 44.6 49.5----
2024-04-18 09:54 pm N 7.0 8.9----30.20- 44.4 49.5----
2024-04-18 09:48 pm N 6.0 8.9----30.20- 44.6 49.5----
2024-04-18 09:42 pm N 6.0 8.9----30.20- 44.4 49.3----
2024-04-18 09:36 pm N 5.1 7.0----30.19- 44.4 49.3----
2024-04-18 09:30 pm N 5.1 8.0----30.19- 44.4 49.3----
2024-04-18 09:24 pm N 6.0 8.0----30.19- 44.4 49.3----
2024-04-18 09:18 pm N 5.1 7.0----30.19- 44.4 49.3----
2024-04-18 09:12 pm N 6.0 8.9----30.19- 44.4 49.3----
2024-04-18 09:06 pm N 5.1 8.9----30.19- 44.6 49.3----
2024-04-18 09:00 pmNNE 7.0 8.9----30.18+0.00 44.2 49.1----
2024-04-18 08:54 pmNNE 6.0 8.9----30.18- 44.4 49.1----
2024-04-18 08:48 pmNNE 6.0 8.9----30.18- 44.2 49.1----
2024-04-18 08:42 pm N 7.0 11.1----30.19- 44.2 48.9----
2024-04-18 08:36 pm N 5.1 8.0----30.19- 44.4 48.9----
2024-04-18 08:30 pmNNE 7.0 9.9----30.17- 44.1 48.7----
2024-04-18 08:24 pm NE 7.0 9.9----30.17- 43.9 48.6----
2024-04-18 08:18 pmENE 6.0 8.9----30.16- 44.1 48.4----
2024-04-18 08:12 pm NE 7.0 8.9----30.16- 44.1 48.4----
2024-04-18 08:06 pmENE 7.0 12.0----30.16- 44.1 48.2----
2024-04-18 08:00 pmENE 8.0 11.1----30.16+0.00 44.4 48.2----
2024-04-18 07:54 pm NE 7.0 11.1----30.17- 44.2 48.2----
2024-04-18 07:48 pm NE 8.9 9.9----30.17- 44.2 48.0----
2024-04-18 07:42 pmNNE 7.0 9.9----30.18- 44.4 48.0----
2024-04-18 07:36 pm N 8.0 8.9----30.19- 44.6 47.8----
2024-04-18 07:30 pmNNE 7.0 12.0----30.19- 44.6 47.8----
2024-04-18 07:24 pmNNE 8.0 11.1----30.19- 44.4 47.8----
2024-04-18 07:00 pmNNE 9.9 14.0----30.18+0.03 44.8 47.7----
2024-04-18 06:54 pm NE 8.9 14.0----30.18- 44.8 47.5----
2024-04-18 06:48 pmNNE 9.9 13.0----30.18- 45.0 47.5----
2024-04-18 06:42 pmNNE 7.0 12.0----30.18- 45.3 47.5----
2024-04-18 06:36 pmNNE 9.9 12.0----30.18- 45.5 47.5----
2024-04-18 06:30 pmNNE 8.9 12.0----30.18- 45.5 47.5----
2024-04-18 06:24 pmNNE 9.9 13.0----30.17- 45.3 47.5----
2024-04-18 06:18 pmNNE 8.9 12.0----30.18- 45.5 47.5----
2024-04-18 06:12 pmNNE 8.9 11.1----30.18- 45.3 47.5----
2024-04-18 06:06 pmNNE 8.9 12.0----30.18- 45.3 47.5----
2024-04-18 06:00 pmNNE 9.9 13.0----30.18+0.04- 47.5----
2024-04-18 05:54 pmNNE 9.9 13.0----30.18-- 47.5----
2024-04-18 05:48 pmNNE 8.9 12.0----30.17- 45.5 47.5----
2024-04-18 05:42 pm N 8.0 12.0----30.17- 45.7 47.5----
2024-04-18 05:36 pm N 7.0 11.1----30.17- 46.0 47.7----
2024-04-18 05:30 pmNNE 6.0 11.1----30.17- 45.9 47.7----
2024-04-18 05:24 pm N 8.0 9.9----30.17- 46.6 47.7----
2024-04-18 05:18 pmNNE 8.0 11.1----30.17- 46.6 47.7----
2024-04-18 05:12 pmNNE 8.9 11.1----30.17- 46.8 47.7----
2024-04-18 05:06 pmNNE 8.9 11.1----30.16- 46.9 47.7----
2024-04-18 05:00 pm NE 8.0 12.0----30.16+0.01 47.3 47.7----
2024-04-18 04:54 pmNNE 8.9 12.0----30.16- 47.7 47.7----